Satellite-Ground Cal/Val Region Overpasses Predictions

Prediction of Satellite NPP Overpassing Cal/Val Region: PacNW

Region Location: (Latitude: 10.00, Longitude: 139.50) to (Latitude: 22.70, Longitude: 165.60).

Table of predicted overpasses for the next 14.0 days since TLE Epoch: 9/3/2016
Interval Starting Time Starting Location Ending Time Ending Location
1 09/03/2016 15:43:18 ( 22.67, 149.27) 09/03/2016 15:46:53 ( 10.04, 146.27)
2 09/04/2016 02:52:23 ( 10.05, 156.80) 09/04/2016 02:55:58 ( 22.67, 153.79)
3 09/04/2016 15:24:15 ( 22.66, 154.03) 09/04/2016 15:27:50 ( 10.04, 151.03)
4 09/05/2016 02:33:20 ( 10.05, 161.56) 09/05/2016 02:36:55 ( 22.68, 158.55)
5 09/05/2016 15:05:13 ( 22.66, 158.79) 09/05/2016 15:08:48 ( 10.04, 155.79)
6 09/06/2016 02:15:11 ( 13.17, 165.60) 09/06/2016 02:17:53 ( 22.68, 163.31)
7 09/06/2016 03:55:47 ( 10.01, 140.95) 09/06/2016 03:57:33 ( 16.24, 139.51)
8 09/06/2016 14:46:11 ( 22.65, 163.55) 09/06/2016 14:49:46 ( 10.03, 160.55)
9 09/07/2016 03:36:44 ( 10.01, 145.71) 09/07/2016 03:40:20 ( 22.69, 142.69)
10 09/07/2016 14:30:22 ( 11.26, 165.59) 09/07/2016 14:30:43 ( 10.03, 165.31)
11 09/07/2016 16:08:37 ( 22.70, 142.94) 09/07/2016 16:12:13 ( 10.02, 139.93)
12 09/08/2016 03:17:42 ( 10.02, 150.47) 09/08/2016 03:21:18 ( 22.70, 147.45)
13 09/08/2016 15:49:35 ( 22.69, 147.70) 09/08/2016 15:53:11 ( 10.01, 144.69)
14 09/09/2016 02:58:39 ( 10.03, 155.23) 09/09/2016 03:02:14 ( 22.65, 152.23)
15 09/09/2016 15:30:32 ( 22.68, 152.46) 09/09/2016 15:34:08 ( 10.00, 149.45)
16 09/10/2016 02:39:37 ( 10.03, 159.99) 09/10/2016 02:43:12 ( 22.65, 156.99)
17 09/10/2016 15:11:30 ( 22.68, 157.22) 09/10/2016 15:15:05 ( 10.06, 154.22)
18 09/11/2016 02:20:34 ( 10.04, 164.74) 09/11/2016 02:24:09 ( 22.66, 161.74)
19 09/11/2016 14:52:27 ( 22.67, 161.98) 09/11/2016 14:56:02 ( 10.05, 158.98)
20 09/12/2016 03:43:02 ( 10.05, 144.13) 09/12/2016 03:46:37 ( 22.68, 141.13)
21 09/12/2016 14:34:45 ( 17.97, 165.59) 09/12/2016 14:37:00 ( 10.04, 163.74)
22 09/12/2016 16:14:55 ( 22.66, 141.36) 09/12/2016 16:17:06 ( 14.97, 139.50)
23
